PIMOHWEATHER Station Historical Data
Daily Summary for August 01, 2020 Units:  Metric    English   Both
Daily Weekly Monthly Yearly
  High: Low: Average:
Temperature: 33.0 °C 25.0 °C 27.3 °C
Dew Point: 26.0 °C 24.0 °C 24.5 °C
Humidity: 93% 61% 85%
Wind Speed: 64km/h 0km/h 8.3km/h
Wind Gust: 81km/h - -
Wind- - SE
Pressure: 1015.6 hPa 1010.6 hPa -
Precipitation: 17.09 mm    
 
 
Tabular Data for August 01, 2020
Time Temperature Dew Point Pressure Wind Wind Speed Wind Gust Humidity Rainfall Rate (Hourly) solar
00:04 27.0 °C 25.0 °C 1012.8 hPa Calm     90% 0.00 mm 0.00 W/m2
00:08 27.0 °C 25.0 °C 1012.7 hPa SSE 1 km/h 4 km/h 90% 0.00 mm 0.00 W/m2
00:19 27.0 °C 25.0 °C 1012.7 hPa Calm     90% 0.00 mm 0.00 W/m2
00:24 27.0 °C 25.0 °C 1012.7 hPa SSE 3 km/h 4 km/h 90% 0.00 mm 0.00 W/m2
00:29 27.0 °C 25.0 °C 1012.6 hPa Calm   4 km/h 90% 0.00 mm 0.00 W/m2
00:34 27.0 °C 25.0 °C 1012.6 hPa Calm   4 km/h 90% 0.00 mm 0.00 W/m2
00:39 27.0 °C 25.0 °C 1012.6 hPa Calm   4 km/h 90% 0.00 mm 0.00 W/m2
00:44 27.0 °C 25.0 °C 1012.4 hPa Calm     89% 0.00 mm 0.00 W/m2
00:49 27.0 °C 25.0 °C 1012.6 hPa SSE 4 km/h 8 km/h 89% 0.00 mm 0.00 W/m2
00:54 27.0 °C 25.0 °C 1012.6 hPa SSE 4 km/h 4 km/h 89% 0.00 mm 0.00 W/m2
00:59 27.0 °C 25.0 °C 1012.6 hPa SSE 3 km/h 4 km/h 89% 0.00 mm 0.00 W/m2
01:04 27.0 °C 25.0 °C 1012.5 hPa Calm     89% 0.00 mm 0.00 W/m2
01:09 27.0 °C 25.0 °C 1012.5 hPa Calm   4 km/h 89% 0.00 mm 0.00 W/m2
01:14 27.0 °C 25.0 °C 1012.5 hPa SSE 1 km/h 4 km/h 89% 0.00 mm 0.00 W/m2
01:19 27.0 °C 25.0 °C 1012.5 hPa SSE 4 km/h 4 km/h 89% 0.00 mm 0.00 W/m2
01:24 27.0 °C 25.0 °C 1012.4 hPa SSE 4 km/h 4 km/h 89% 0.00 mm 0.00 W/m2
01:29 27.0 °C 25.0 °C 1012.4 hPa SSE 4 km/h 4 km/h 89% 0.00 mm 0.00 W/m2
01:34 27.0 °C 25.0 °C 1012.4 hPa SSE 4 km/h 4 km/h 89% 0.00 mm 0.00 W/m2
01:39 27.0 °C 25.0 °C 1012.1 hPa SSE 4 km/h 4 km/h 89% 0.00 mm 0.00 W/m2
01:44 27.0 °C 25.0 °C 1012.1 hPa SSE 5 km/h 8 km/h 89% 0.00 mm 0.00 W/m2
01:49 27.0 °C 25.0 °C 1012.1 hPa South 4 km/h 4 km/h 89% 0.00 mm 0.00 W/m2
01:52 27.0 °C 25.0 °C 1012.1 hPa Calm     89% 0.00 mm 0.00 W/m2
02:04 27.0 °C 25.0 °C 1011.9 hPa Calm   4 km/h 90% 0.00 mm 0.00 W/m2
02:09 27.0 °C 25.0 °C 1011.9 hPa Calm     90% 0.00 mm 0.00 W/m2
02:14 27.0 °C 25.0 °C 1011.9 hPa South 3 km/h 4 km/h 90% 0.00 mm 0.00 W/m2
02:19 27.0 °C 25.0 °C 1012.0 hPa Calm     90% 0.00 mm 0.00 W/m2
02:24 27.0 °C 25.0 °C 1011.7 hPa Calm     89% 0.00 mm 0.00 W/m2
02:29 27.0 °C 25.0 °C 1011.7 hPa Calm     89% 0.00 mm 0.00 W/m2
02:34 27.0 °C 25.0 °C 1011.7 hPa South 1 km/h 4 km/h 90% 0.00 mm 0.00 W/m2
02:39 27.0 °C 25.0 °C 1011.5 hPa South 1 km/h 4 km/h 90% 0.00 mm 0.00 W/m2
02:44 27.0 °C 25.0 °C 1011.4 hPa South 4 km/h 4 km/h 90% 0.00 mm 0.00 W/m2
02:49 27.0 °C 25.0 °C 1011.4 hPa South 4 km/h 4 km/h 90% 0.00 mm 0.00 W/m2
02:54 27.0 °C 25.0 °C 1011.4 hPa SSE 5 km/h 8 km/h 91% 0.00 mm 0.00 W/m2
02:59 27.0 °C 25.0 °C 1011.4 hPa East 8 km/h 12 km/h 91% 0.00 mm 0.00 W/m2
03:04 27.0 °C 25.0 °C 1011.3 hPa NNE 8 km/h 8 km/h 92% 0.00 mm 0.00 W/m2
03:09 26.0 °C 25.0 °C 1011.1 hPa North 11 km/h 12 km/h 93% 0.00 mm 0.00 W/m2
03:14 26.0 °C 25.0 °C 1011.1 hPa North 9 km/h 12 km/h 93% 0.00 mm 0.00 W/m2
03:19 26.0 °C 25.0 °C 1011.1 hPa North 5 km/h 8 km/h 93% 0.00 mm 0.00 W/m2
03:24 26.0 °C 25.0 °C 1010.9 hPa NNE 8 km/h 12 km/h 93% 0.00 mm 0.00 W/m2
03:29 26.0 °C 25.0 °C 1010.9 hPa NE 5 km/h 8 km/h 93% 0.00 mm 0.00 W/m2
03:34 26.0 °C 25.0 °C 1011.1 hPa NE 4 km/h 8 km/h 93% 0.00 mm 0.00 W/m2
03:36 26.0 °C 25.0 °C 1010.9 hPa NE 5 km/h 8 km/h 93% 0.00 mm 0.00 W/m2
03:49 26.0 °C 25.0 °C 1010.8 hPa NE 1 km/h 4 km/h 93% 0.00 mm 0.00 W/m2
03:54 26.0 °C 25.0 °C 1010.6 hPa NE 3 km/h 4 km/h 93% 0.00 mm 0.00 W/m2
03:59 26.0 °C 25.0 °C 1010.8 hPa ENE 3 km/h 4 km/h 93% 0.00 mm 0.00 W/m2
04:04 26.0 °C 25.0 °C 1010.8 hPa Calm     93% 0.00 mm 0.00 W/m2
04:09 26.0 °C 25.0 °C 1010.7 hPa ENE 2 km/h 4 km/h 92% 0.00 mm 0.00 W/m2
04:14 26.0 °C 25.0 °C 1010.7 hPa Calm     92% 0.00 mm 0.00 W/m2
04:19 26.0 °C 25.0 °C 1010.8 hPa Calm     92% 0.00 mm 0.00 W/m2
04:24 26.0 °C 25.0 °C 1010.8 hPa Calm     92% 0.00 mm 0.00 W/m2
04:29 26.0 °C 25.0 °C 1010.9 hPa Calm     92% 0.00 mm 0.00 W/m2
04:34 26.0 °C 25.0 °C 1010.9 hPa Calm     92% 0.00 mm 0.00 W/m2
04:39 26.0 °C 25.0 °C 1010.9 hPa Calm     92% 0.00 mm 0.00 W/m2
04:44 26.0 °C 25.0 °C 1011.2 hPa Calm     92% 0.00 mm 0.00 W/m2
04:49 26.0 °C 25.0 °C 1011.2 hPa Calm     92% 0.00 mm 0.00 W/m2
04:54 26.0 °C 25.0 °C 1011.1 hPa Calm     92% 0.00 mm 0.00 W/m2
04:59 26.0 °C 25.0 °C 1011.3 hPa ENE 2 km/h 4 km/h 92% 0.00 mm 0.00 W/m2
05:04 26.0 °C 25.0 °C 1011.3 hPa Calm     92% 0.00 mm 0.00 W/m2
05:09 26.0 °C 25.0 °C 1011.2 hPa Calm     92% 0.00 mm 0.00 W/m2
05:14 26.0 °C 25.0 °C 1011.1 hPa Calm     92% 0.00 mm 0.00 W/m2
05:19 26.0 °C 25.0 °C 1011.3 hPa Calm   4 km/h 92% 0.00 mm 0.00 W/m2
05:24 26.0 °C 25.0 °C 1011.4 hPa Calm     91% 0.00 mm 0.00 W/m2
05:29 26.0 °C 25.0 °C 1011.4 hPa Calm     91% 0.00 mm 0.00 W/m2
05:34 27.0 °C 25.0 °C 1011.4 hPa Calm     91% 0.00 mm 0.00 W/m2
05:39 27.0 °C 25.0 °C 1011.5 hPa ENE 1 km/h 4 km/h 91% 0.00 mm 0.00 W/m2
05:44 27.0 °C 25.0 °C 1011.6 hPa ENE 1 km/h 4 km/h 91% 0.00 mm 1.22 W/m2
05:49 27.0 °C 25.0 °C 1011.7 hPa ENE 2 km/h 4 km/h 90% 0.00 mm 3.79 W/m2
05:54 27.0 °C 25.0 °C 1011.5 hPa ENE 2 km/h 4 km/h 90% 0.00 mm 6.48 W/m2
05:59 27.0 °C 25.0 °C 1011.7 hPa ENE 1 km/h 4 km/h 90% 0.00 mm 9.05 W/m2
06:04 27.0 °C 25.0 °C 1011.8 hPa Calm   4 km/h 90% 0.00 mm 12.97 W/m2
06:09 27.0 °C 25.0 °C 1011.7 hPa ENE 1 km/h 4 km/h 90% 0.00 mm 16.39 W/m2
06:14 27.0 °C 25.0 °C 1011.9 hPa ENE 4 km/h 4 km/h 89% 0.00 mm 20.31 W/m2
06:19 27.0 °C 25.0 °C 1011.9 hPa ENE 2 km/h 4 km/h 89% 0.00 mm 24.22 W/m2
06:24 27.0 °C 25.0 °C 1012.2 hPa Calm   4 km/h 89% 0.00 mm 28.14 W/m2
06:29 27.0 °C 25.0 °C 1012.3 hPa ENE 1 km/h 4 km/h 89% 0.00 mm 33.39 W/m2
06:34 27.0 °C 25.0 °C 1012.2 hPa ENE 3 km/h 4 km/h 89% 0.00 mm 37.19 W/m2
06:39 27.0 °C 25.0 °C 1012.6 hPa ENE 4 km/h 4 km/h 89% 0.00 mm 45.02 W/m2
06:44 27.0 °C 25.0 °C 1012.6 hPa ENE 4 km/h 4 km/h 88% 0.00 mm 51.99 W/m2
06:49 27.0 °C 25.0 °C 1012.4 hPa East 5 km/h 8 km/h 88% 0.00 mm 59.33 W/m2
06:54 27.0 °C 25.0 °C 1012.4 hPa ESE 1 km/h 4 km/h 88% 0.00 mm 68.87 W/m2
06:59 27.0 °C 25.0 °C 1012.5 hPa ESE 1 km/h 4 km/h 88% 0.00 mm 80.62 W/m2
07:04 28.0 °C 25.0 °C 1012.6 hPa ESE 1 km/h 4 km/h 87% 0.00 mm 91.51 W/m2
07:09 28.0 °C 25.0 °C 1012.6 hPa Calm   4 km/h 87% 0.00 mm 101.05 W/m2
07:14 28.0 °C 25.0 °C 1012.6 hPa ESE 1 km/h 4 km/h 87% 0.00 mm 108.39 W/m2
07:24 28.0 °C 25.0 °C 1012.6 hPa ESE 4 km/h 4 km/h 85% 0.00 mm 118.42 W/m2
07:29 28.0 °C 25.0 °C 1012.7 hPa ESE 5 km/h 8 km/h 85% 0.00 mm 129.68 W/m2
07:34 28.0 °C 25.0 °C 1012.7 hPa ESE 5 km/h 8 km/h 85% 0.00 mm 146.56 W/m2
07:39 28.0 °C 25.0 °C 1012.7 hPa ESE 3 km/h 4 km/h 85% 0.00 mm 153.90 W/m2
07:44 28.0 °C 25.0 °C 1012.7 hPa ESE 4 km/h 4 km/h 84% 0.00 mm 167.85 W/m2
07:49 29.0 °C 26.0 °C 1012.7 hPa ESE 5 km/h 8 km/h 84% 0.00 mm 172.61 W/m2
07:54 29.0 °C 26.0 °C 1012.7 hPa SE 8 km/h 8 km/h 83% 0.00 mm 184.36 W/m2
07:59 29.0 °C 26.0 °C 1012.9 hPa SE 5 km/h 8 km/h 84% 0.00 mm 193.05 W/m2
08:04 29.0 °C 25.0 °C 1012.9 hPa SSE 10 km/h 12 km/h 83% 0.00 mm 213.35 W/m2
08:09 29.0 °C 25.0 °C 1012.8 hPa SSW 6 km/h 8 km/h 83% 0.00 mm 244.67 W/m2
08:14 29.0 °C 25.0 °C 1012.8 hPa SSE 5 km/h 8 km/h 82% 0.00 mm 255.44 W/m2
08:19 29.0 °C 25.0 °C 1012.8 hPa SSE 5 km/h 8 km/h 81% 0.00 mm 284.55 W/m2
08:24 29.0 °C 25.0 °C 1012.8 hPa South 13 km/h 16 km/h 79% 0.00 mm 370.43 W/m2
08:29 30.0 °C 25.0 °C 1012.8 hPa SE 10 km/h 12 km/h 78% 0.00 mm 405.18 W/m2
08:34 30.0 °C 25.0 °C 1013.0 hPa South 9 km/h 12 km/h 77% 0.00 mm 421.57 W/m2
08:39 30.0 °C 25.0 °C 1013.0 hPa SE 10 km/h 16 km/h 77% 0.00 mm 449.83 W/m2
08:44 30.0 °C 25.0 °C 1013.1 hPa SE 16 km/h 20 km/h 75% 0.00 mm 557.85 W/m2
08:49 31.0 °C 25.0 °C 1013.0 hPa East 10 km/h 16 km/h 74% 0.00 mm 530.45 W/m2
08:54 31.0 °C 25.0 °C 1012.9 hPa SSE 16 km/h 20 km/h 73% 0.00 mm 474.05 W/m2
08:59 30.0 °C 25.0 °C 1012.8 hPa SSE 18 km/h 20 km/h 73% 0.00 mm 494.97 W/m2
09:04 31.0 °C 25.0 °C 1012.9 hPa SE 17 km/h 24 km/h 72% 0.00 mm 493.62 W/m2
09:09 31.0 °C 25.0 °C 1012.9 hPa SSE 15 km/h 20 km/h 70% 0.00 mm 546.60 W/m2
09:14 31.0 °C 25.0 °C 1012.9 hPa South 14 km/h 20 km/h 70% 0.00 mm 644.59 W/m2
09:19 31.0 °C 25.0 °C 1013.1 hPa ESE 10 km/h 16 km/h 69% 0.00 mm 686.67 W/m2
09:24 32.0 °C 25.0 °C 1012.9 hPa SE 20 km/h 28 km/h 68% 0.00 mm 688.02 W/m2
09:29 32.0 °C 25.0 °C 1013.0 hPa SSE 21 km/h 28 km/h 68% 0.00 mm 676.64 W/m2
09:34 31.0 °C 25.0 °C 1012.8 hPa SE 17 km/h 24 km/h 67% 0.00 mm 713.09 W/m2
09:39 32.0 °C 24.0 °C 1012.8 hPa East 9 km/h 12 km/h 66% 0.00 mm 1002.54 W/m2
09:44 32.0 °C 25.0 °C 1012.7 hPa SE 17 km/h 28 km/h 66% 0.00 mm 606.42 W/m2
09:49 32.0 °C 25.0 °C 1012.7 hPa SSE 16 km/h 24 km/h 66% 0.00 mm 416.80 W/m2
09:54 32.0 °C 25.0 °C 1012.7 hPa South 34 km/h 44 km/h 68% 0.00 mm 689.24 W/m2
09:59 31.0 °C 24.0 °C 1012.6 hPa South 31 km/h 44 km/h 68% 0.00 mm 821.97 W/m2
10:04 32.0 °C 25.0 °C 1012.6 hPa South 36 km/h 44 km/h 68% 0.00 mm 922.29 W/m2
10:09 32.0 °C 24.0 °C 1012.7 hPa SSE 33 km/h 36 km/h 66% 0.00 mm 619.87 W/m2
10:14 32.0 °C 24.0 °C 1012.5 hPa SSE 22 km/h 36 km/h 67% 0.00 mm 684.96 W/m2
10:19 32.0 °C 25.0 °C 1012.6 hPa SSE 29 km/h 40 km/h 65% 0.00 mm 1087.08 W/m2
10:24 33.0 °C 25.0 °C 1012.7 hPa SSE 23 km/h 28 km/h 65% 0.00 mm 894.03 W/m2
10:29 33.0 °C 25.0 °C 1012.6 hPa South 28 km/h 36 km/h 65% 0.00 mm 702.33 W/m2
10:34 32.0 °C 25.0 °C 1012.4 hPa South 36 km/h 48 km/h 66% 0.00 mm 709.18 W/m2
10:39 32.0 °C 25.0 °C 1012.5 hPa SSE 26 km/h 32 km/h 65% 0.00 mm 730.47 W/m2
10:44 33.0 °C 25.0 °C 1012.3 hPa South 19 km/h 28 km/h 64% 0.00 mm 923.15 W/m2
10:49 33.0 °C 25.0 °C 1012.3 hPa South 24 km/h 28 km/h 64% 0.00 mm 934.40 W/m2
10:54 33.0 °C 25.0 °C 1012.3 hPa SSE 24 km/h 32 km/h 62% 0.00 mm 857.21 W/m2
10:59 33.0 °C 25.0 °C 1012.3 hPa SSE 26 km/h 32 km/h 63% 0.00 mm 586.48 W/m2
11:04 33.0 °C 25.0 °C 1012.3 hPa South 40 km/h 44 km/h 64% 0.00 mm 667.10 W/m2
11:09 32.0 °C 24.0 °C 1012.3 hPa SSE 33 km/h 48 km/h 63% 0.00 mm 875.44 W/m2
11:14 33.0 °C 24.0 °C 1012.3 hPa SE 22 km/h 32 km/h 62% 0.00 mm 1036.31 W/m2
11:19 33.0 °C 25.0 °C 1012.3 hPa SSW 34 km/h 40 km/h 63% 0.00 mm 1092.71 W/m2
11:24 33.0 °C 25.0 °C 1012.3 hPa South 26 km/h 36 km/h 63% 0.00 mm 687.16 W/m2
11:29 32.0 °C 25.0 °C 1012.1 hPa South 26 km/h 32 km/h 64% 0.00 mm 534.85 W/m2
11:34 33.0 °C 24.0 °C 1012.1 hPa SE 18 km/h 28 km/h 62% 0.00 mm 567.76 W/m2
11:39 33.0 °C 24.0 °C 1012.0 hPa South 22 km/h 24 km/h 62% 0.00 mm 535.71 W/m2
11:44 33.0 °C 24.0 °C 1012.0 hPa South 6 km/h 8 km/h 62% 0.00 mm 562.13 W/m2
11:49 33.0 °C 24.0 °C 1012.0 hPa South 18 km/h 20 km/h 61% 0.00 mm 695.72 W/m2
11:54 33.0 °C 24.0 °C 1012.0 hPa SE 19 km/h 24 km/h 61% 0.00 mm 360.40 W/m2
11:59 33.0 °C 24.0 °C 1012.0 hPa South 18 km/h 20 km/h 61% 0.00 mm 587.33 W/m2
12:04 33.0 °C 24.0 °C 1012.1 hPa South 21 km/h 28 km/h 61% 0.00 mm 467.20 W/m2
12:09 33.0 °C 26.0 °C 1012.3 hPa SSW 64 km/h 81 km/h 73% 0.00 mm 172.12 W/m2
12:14 30.0 °C 25.0 °C 1012.4 hPa SSW 51 km/h 64 km/h 79% 0.00 mm 54.56 W/m2
12:19 28.0 °C 24.0 °C 1012.8 hPa SSW 44 km/h 64 km/h 84% 0.00 mm 54.56 W/m2
12:24 27.0 °C 25.0 °C 1012.7 hPa SSW 35 km/h 48 km/h 90% 3.61 mm 35.11 W/m2
12:29 26.0 °C 25.0 °C 1012.8 hPa SSW 37 km/h 44 km/h 92% 27.00 mm 54.19 W/m2
12:34 26.0 °C 24.0 °C 1012.9 hPa South 27 km/h 36 km/h 91% 35.99 mm 85.88 W/m2
12:39 25.0 °C 24.0 °C 1012.6 hPa South 30 km/h 32 km/h 92% 35.99 mm 109.24 W/m2
12:44 25.0 °C 24.0 °C 1012.2 hPa SSE 13 km/h 16 km/h 92% 25.20 mm 120.99 W/m2
12:49 26.0 °C 24.0 °C 1011.9 hPa South 17 km/h 20 km/h 89% 16.21 mm 124.05 W/m2
12:54 26.0 °C 24.0 °C 1011.8 hPa SSE 10 km/h 12 km/h 90% 3.61 mm 113.65 W/m2
12:59 26.0 °C 24.0 °C 1011.7 hPa ESE 9 km/h 12 km/h 90% 1.80 mm 113.16 W/m2
13:04 26.0 °C 24.0 °C 1011.4 hPa SSE 22 km/h 32 km/h 89% 1.80 mm 126.12 W/m2
13:09 26.0 °C 24.0 °C 1011.5 hPa SE 12 km/h 20 km/h 89% 0.00 mm 145.21 W/m2
13:14 26.0 °C 24.0 °C 1011.4 hPa ESE 10 km/h 12 km/h 88% 1.80 mm 160.02 W/m2
13:19 26.0 °C 24.0 °C 1011.6 hPa SSE 13 km/h 16 km/h 88% 1.80 mm 173.47 W/m2
13:24 27.0 °C 24.0 °C 1011.6 hPa SE 15 km/h 24 km/h 86% 1.80 mm 173.84 W/m2
13:29 27.0 °C 24.0 °C 1011.8 hPa South 16 km/h 20 km/h 85% 1.80 mm 184.73 W/m2
13:34 27.0 °C 24.0 °C 1012.0 hPa South 15 km/h 20 km/h 86% 1.80 mm 184.36 W/m2
13:39 27.0 °C 24.0 °C 1012.1 hPa South 12 km/h 16 km/h 86% 1.80 mm 176.04 W/m2
13:44 27.0 °C 25.0 °C 1012.5 hPa SSW 18 km/h 24 km/h 87% 5.41 mm 101.90 W/m2
13:49 27.0 °C 25.0 °C 1012.6 hPa SSW 40 km/h 44 km/h 91% 10.80 mm 53.70 W/m2
13:54 26.0 °C 24.0 °C 1012.6 hPa SSW 27 km/h 36 km/h 93% 18.01 mm 71.07 W/m2
13:59 26.0 °C 24.0 °C 1012.6 hPa SSW 15 km/h 16 km/h 93% 18.01 mm 75.85 W/m2
14:04 26.0 °C 24.0 °C 1012.7 hPa SSW 16 km/h 24 km/h 93% 12.60 mm 82.33 W/m2
14:09 26.0 °C 24.0 °C 1012.6 hPa SSW 36 km/h 44 km/h 90% 3.61 mm 99.70 W/m2
14:14 26.0 °C 24.0 °C 1012.7 hPa SSW 20 km/h 28 km/h 89% 3.61 mm 100.19 W/m2
14:19 26.0 °C 24.0 °C 1012.6 hPa SSW 25 km/h 36 km/h 88% 1.80 mm 97.50 W/m2
14:24 26.0 °C 24.0 °C 1012.6 hPa SSW 24 km/h 32 km/h 88% 1.80 mm 91.87 W/m2
14:34 26.0 °C 24.0 °C 1012.6 hPa SSW 23 km/h 24 km/h 88% 1.80 mm 90.16 W/m2
14:39 26.0 °C 24.0 °C 1012.4 hPa SSW 19 km/h 24 km/h 88% 1.80 mm 90.65 W/m2
14:44 26.0 °C 24.0 °C 1012.5 hPa South 18 km/h 24 km/h 88% 0.00 mm 91.02 W/m2
14:49 26.0 °C 24.0 °C 1012.5 hPa South 24 km/h 32 km/h 87% 0.00 mm 91.87 W/m2
14:54 26.0 °C 24.0 °C 1012.5 hPa South 23 km/h 28 km/h 86% 0.00 mm 96.65 W/m2
14:59 26.0 °C 24.0 °C 1012.4 hPa South 18 km/h 24 km/h 86% 0.00 mm 104.10 W/m2
15:04 26.0 °C 24.0 °C 1012.4 hPa South 17 km/h 20 km/h 87% 0.00 mm 111.44 W/m2
15:09 26.0 °C 24.0 °C 1012.5 hPa South 16 km/h 20 km/h 87% 0.00 mm 117.44 W/m2
15:14 26.0 °C 24.0 °C 1012.5 hPa SE 14 km/h 20 km/h 88% 1.80 mm 118.78 W/m2
15:19 26.0 °C 24.0 °C 1012.4 hPa SE 12 km/h 16 km/h 87% 1.80 mm 118.42 W/m2
15:24 26.0 °C 24.0 °C 1012.4 hPa SE 15 km/h 20 km/h 87% 1.80 mm 116.58 W/m2
15:29 26.0 °C 24.0 °C 1012.3 hPa ESE 7 km/h 8 km/h 88% 0.00 mm 109.24 W/m2
15:34 26.0 °C 24.0 °C 1012.4 hPa SE 8 km/h 12 km/h 88% 0.00 mm 99.34 W/m2
15:39 26.0 °C 25.0 °C 1012.4 hPa SE 5 km/h 12 km/h 89% 0.00 mm 84.04 W/m2
15:44 26.0 °C 25.0 °C 1012.5 hPa SE 6 km/h 12 km/h 89% 0.00 mm 70.22 W/m2
15:49 26.0 °C 25.0 °C 1012.6 hPa East 8 km/h 12 km/h 89% 1.80 mm 58.97 W/m2
15:54 26.0 °C 25.0 °C 1012.6 hPa SE 9 km/h 12 km/h 89% 1.80 mm 53.70 W/m2
15:59 26.0 °C 24.0 °C 1012.6 hPa SE 6 km/h 8 km/h 89% 1.80 mm 49.42 W/m2
16:04 26.0 °C 24.0 °C 1012.6 hPa SE 5 km/h 8 km/h 89% 1.80 mm 48.56 W/m2
16:09 26.0 °C 24.0 °C 1012.6 hPa SE 5 km/h 8 km/h 89% 1.80 mm 47.71 W/m2
16:14 26.0 °C 24.0 °C 1012.6 hPa SSE 5 km/h 8 km/h 89% 1.80 mm 43.31 W/m2
16:19 26.0 °C 24.0 °C 1012.5 hPa SE 5 km/h 8 km/h 89% 1.80 mm 40.24 W/m2
16:24 26.0 °C 24.0 °C 1012.7 hPa ESE 7 km/h 12 km/h 88% 1.80 mm 37.19 W/m2
16:29 26.0 °C 24.0 °C 1012.7 hPa SE 10 km/h 12 km/h 88% 0.00 mm 32.42 W/m2
16:34 26.0 °C 24.0 °C 1012.6 hPa South 4 km/h 4 km/h 89% 0.00 mm 28.14 W/m2
16:39 26.0 °C 24.0 °C 1012.7 hPa South 3 km/h 4 km/h 89% 0.00 mm 28.14 W/m2
16:44 26.0 °C 24.0 °C 1012.5 hPa South 1 km/h 4 km/h 89% 1.80 mm 27.65 W/m2
16:49 26.0 °C 24.0 °C 1012.6 hPa ESE 5 km/h 8 km/h 89% 1.80 mm 26.79 W/m2
16:54 26.0 °C 24.0 °C 1012.6 hPa SE 7 km/h 12 km/h 89% 1.80 mm 25.07 W/m2
16:59 26.0 °C 24.0 °C 1012.5 hPa SE 9 km/h 12 km/h 88% 0.00 mm 22.51 W/m2
17:04 26.0 °C 24.0 °C 1012.5 hPa SE 5 km/h 8 km/h 89% 0.00 mm 20.80 W/m2
17:09 26.0 °C 24.0 °C 1012.6 hPa SE 5 km/h 8 km/h 89% 0.00 mm 19.45 W/m2
17:14 26.0 °C 24.0 °C 1012.4 hPa South 8 km/h 8 km/h 89% 0.00 mm 18.60 W/m2
17:19 26.0 °C 24.0 °C 1012.7 hPa SSE 8 km/h 8 km/h 88% 0.00 mm 17.25 W/m2
17:24 26.0 °C 24.0 °C 1012.4 hPa SSE 6 km/h 8 km/h 88% 0.00 mm 16.88 W/m2
17:29 26.0 °C 24.0 °C 1012.5 hPa SSE 8 km/h 12 km/h 88% 0.00 mm 14.68 W/m2
17:34 26.0 °C 24.0 °C 1012.7 hPa SSE 4 km/h 8 km/h 88% 0.00 mm 12.48 W/m2
17:39 26.0 °C 24.0 °C 1012.4 hPa SE 5 km/h 8 km/h 88% 0.00 mm 11.25 W/m2
17:44 26.0 °C 24.0 °C 1012.4 hPa SE 4 km/h 8 km/h 88% 0.00 mm 8.56 W/m2
17:49 26.0 °C 24.0 °C 1012.6 hPa ESE 6 km/h 8 km/h 88% 0.00 mm 6.85 W/m2
17:54 26.0 °C 24.0 °C 1012.6 hPa ESE 1 km/h 4 km/h 88% 0.00 mm 5.63 W/m2
17:59 26.0 °C 24.0 °C 1012.7 hPa ESE 3 km/h 4 km/h 88% 0.00 mm 4.77 W/m2
18:04 26.0 °C 24.0 °C 1012.7 hPa ESE 4 km/h 4 km/h 88% 0.00 mm 2.94 W/m2
18:09 26.0 °C 24.0 °C 1012.8 hPa ESE 4 km/h 4 km/h 89% 0.00 mm 1.71 W/m2
18:14 26.0 °C 24.0 °C 1012.9 hPa SE 6 km/h 8 km/h 88% 0.00 mm 0.85 W/m2
18:19 26.0 °C 24.0 °C 1013.0 hPa SE 4 km/h 8 km/h 89% 0.00 mm 0.00 W/m2
18:24 26.0 °C 24.0 °C 1013.0 hPa ESE 3 km/h 4 km/h 89% 0.00 mm 0.00 W/m2
18:29 26.0 °C 24.0 °C 1013.1 hPa East 1 km/h 4 km/h 88% 0.00 mm 0.00 W/m2
18:34 26.0 °C 24.0 °C 1013.1 hPa East 3 km/h 4 km/h 88% 0.00 mm 0.00 W/m2
18:39 26.0 °C 24.0 °C 1013.2 hPa ESE 4 km/h 8 km/h 88% 0.00 mm 0.00 W/m2
18:44 26.0 °C 24.0 °C 1013.2 hPa ESE 4 km/h 4 km/h 89% 0.00 mm 0.00 W/m2
18:49 26.0 °C 24.0 °C 1013.3 hPa SSE 3 km/h 4 km/h 89% 0.00 mm 0.00 W/m2
18:54 26.0 °C 24.0 °C 1013.2 hPa SSE 3 km/h 4 km/h 89% 0.00 mm 0.00 W/m2
18:59 26.0 °C 24.0 °C 1013.4 hPa SE 2 km/h 4 km/h 89% 0.00 mm 0.00 W/m2
19:04 26.0 °C 24.0 °C 1013.5 hPa ESE 4 km/h 4 km/h 89% 0.00 mm 0.00 W/m2
19:09 26.0 °C 24.0 °C 1013.5 hPa ESE 2 km/h 4 km/h 89% 0.00 mm 0.00 W/m2
19:14 26.0 °C 24.0 °C 1013.6 hPa ESE 2 km/h 4 km/h 89% 0.00 mm 0.00 W/m2
19:19 26.0 °C 24.0 °C 1013.6 hPa ESE 2 km/h 4 km/h 88% 0.00 mm 0.00 W/m2
19:24 26.0 °C 24.0 °C 1013.8 hPa East 4 km/h 8 km/h 88% 0.00 mm 0.00 W/m2
19:29 26.0 °C 24.0 °C 1013.8 hPa East 3 km/h 4 km/h 88% 0.00 mm 0.00 W/m2
19:34 26.0 °C 24.0 °C 1013.6 hPa Calm   4 km/h 89% 0.00 mm 0.00 W/m2
19:39 26.0 °C 24.0 °C 1013.9 hPa East 2 km/h 4 km/h 89% 0.00 mm 0.00 W/m2
19:44 26.0 °C 24.0 °C 1014.0 hPa Calm     89% 0.00 mm 0.00 W/m2
19:49 26.0 °C 24.0 °C 1014.1 hPa Calm     88% 0.00 mm 0.00 W/m2
19:54 26.0 °C 24.0 °C 1014.1 hPa East 3 km/h 4 km/h 88% 0.00 mm 0.00 W/m2
19:59 26.0 °C 24.0 °C 1014.1 hPa East 4 km/h 4 km/h 89% 0.00 mm 0.00 W/m2
20:04 26.0 °C 24.0 °C 1014.2 hPa ENE 3 km/h 4 km/h 89% 0.00 mm 0.00 W/m2
20:09 26.0 °C 24.0 °C 1014.2 hPa ENE 4 km/h 4 km/h 88% 0.00 mm 0.00 W/m2
20:14 26.0 °C 24.0 °C 1014.3 hPa East 1 km/h 4 km/h 88% 0.00 mm 0.00 W/m2
20:19 26.0 °C 24.0 °C 1014.4 hPa Calm     88% 0.00 mm 0.00 W/m2
20:24 26.0 °C 24.0 °C 1014.4 hPa Calm     89% 0.00 mm 0.00 W/m2
20:29 26.0 °C 24.0 °C 1014.4 hPa Calm     89% 0.00 mm 0.00 W/m2
20:34 26.0 °C 24.0 °C 1014.5 hPa ENE 1 km/h 4 km/h 88% 0.00 mm 0.00 W/m2
20:39 26.0 °C 24.0 °C 1014.7 hPa East 2 km/h 4 km/h 88% 0.00 mm 0.00 W/m2
20:44 26.0 °C 24.0 °C 1014.6 hPa Calm     88% 0.00 mm 0.00 W/m2
20:49 26.0 °C 24.0 °C 1014.7 hPa Calm     88% 0.00 mm 0.00 W/m2
20:54 26.0 °C 24.0 °C 1014.8 hPa Calm     89% 0.00 mm 0.00 W/m2
20:59 26.0 °C 24.0 °C 1014.8 hPa East 1 km/h 4 km/h 88% 0.00 mm 0.00 W/m2
21:04 26.0 °C 24.0 °C 1015.0 hPa Calm     88% 0.00 mm 0.00 W/m2
21:08 26.0 °C 24.0 °C 1014.8 hPa Calm   4 km/h 87% 0.00 mm 0.00 W/m2
21:14 26.0 °C 24.0 °C 1014.9 hPa Calm     89% 0.00 mm 0.00 W/m2
21:19 26.0 °C 24.0 °C 1015.2 hPa Calm     89% 0.00 mm 0.00 W/m2
21:24 26.0 °C 24.0 °C 1015.2 hPa Calm   4 km/h 89% 0.00 mm 0.00 W/m2
21:29 26.0 °C 24.0 °C 1015.1 hPa Calm     88% 0.00 mm 0.00 W/m2
21:34 26.0 °C 24.0 °C 1015.2 hPa Calm     88% 0.00 mm 0.00 W/m2
21:39 26.0 °C 24.0 °C 1015.4 hPa Calm     88% 0.00 mm 0.00 W/m2
21:44 26.0 °C 24.0 °C 1015.4 hPa Calm     88% 0.00 mm 0.00 W/m2
21:49 26.0 °C 24.0 °C 1015.4 hPa Calm     88% 0.00 mm 0.00 W/m2
21:54 26.0 °C 24.0 °C 1015.5 hPa East 1 km/h 4 km/h 88% 0.00 mm 0.00 W/m2
21:59 26.0 °C 24.0 °C 1015.5 hPa Calm     88% 0.00 mm 0.00 W/m2
22:04 26.0 °C 24.0 °C 1015.5 hPa Calm     88% 0.00 mm 0.00 W/m2
22:09 26.0 °C 24.0 °C 1015.5 hPa Calm     89% 1.80 mm 0.00 W/m2
22:14 26.0 °C 24.0 °C 1015.3 hPa East 1 km/h 4 km/h 88% 1.80 mm 0.00 W/m2
22:19 26.0 °C 24.0 °C 1015.6 hPa Calm   4 km/h 88% 1.80 mm 0.00 W/m2
22:24 26.0 °C 24.0 °C 1015.5 hPa Calm     88% 0.00 mm 0.00 W/m2
22:29 26.0 °C 24.0 °C 1015.4 hPa East 1 km/h 4 km/h 88% 0.00 mm 0.00 W/m2
22:34 26.0 °C 24.0 °C 1015.3 hPa Calm     88% 0.00 mm 0.00 W/m2
22:39 26.0 °C 24.0 °C 1015.2 hPa Calm     88% 0.00 mm 0.00 W/m2
22:44 26.0 °C 24.0 °C 1015.2 hPa Calm   4 km/h 88% 0.00 mm 0.00 W/m2
22:48 26.0 °C 24.0 °C 1015.2 hPa Calm   4 km/h 88% 0.00 mm 0.00 W/m2
22:59 26.0 °C 24.0 °C 1015.0 hPa East 1 km/h 4 km/h 88% 0.00 mm 0.00 W/m2
23:04 26.0 °C 24.0 °C 1015.0 hPa Calm     88% 0.00 mm 0.00 W/m2
23:09 26.0 °C 24.0 °C 1014.9 hPa Calm     88% 0.00 mm 0.00 W/m2
23:14 26.0 °C 24.0 °C 1014.9 hPa East 4 km/h 4 km/h 88% 0.00 mm 0.00 W/m2
23:19 26.0 °C 24.0 °C 1014.8 hPa East 1 km/h 4 km/h 88% 0.00 mm 0.00 W/m2
23:24 26.0 °C 24.0 °C 1014.8 hPa East 4 km/h 4 km/h 88% 0.00 mm 0.00 W/m2
23:29 26.0 °C 24.0 °C 1014.6 hPa ENE 6 km/h 12 km/h 87% 0.00 mm 0.00 W/m2
23:34 26.0 °C 24.0 °C 1014.7 hPa NE 6 km/h 8 km/h 87% 0.00 mm 0.00 W/m2
23:39 26.0 °C 24.0 °C 1014.6 hPa NE 8 km/h 12 km/h 87% 0.00 mm 0.00 W/m2
23:44 26.0 °C 24.0 °C 1014.4 hPa NE 1 km/h 4 km/h 88% 0.00 mm 0.00 W/m2
23:49 26.0 °C 24.0 °C 1014.4 hPa Calm     88% 0.00 mm 0.00 W/m2
23:54 26.0 °C 24.0 °C 1014.4 hPa NE 2 km/h 4 km/h 88% 0.00 mm 0.00 W/m2
23:59 26.0 °C 24.0 °C 1014.2 hPa Calm     89% 0.00 mm 0.00 W/m2
PIMOHWEATHER Philippines
Compliments of Weather Underground - 2 mb